This is the latest recevied weather packets stored in our database for station/object KG4LKY-5. If no packets are shown the sender has not sent any weather packets the latest 10 day(s).
| Time | Temp. | Humidity | Pressure | Rain* | Wind** | Luminosity | Snow |
|---|---|---|---|---|---|---|---|
| 1777920963 | 23.89° C | 37% | 1012.8 hPa | 1.78 mm | - | - | - |
| 1777920663 | 25° C | 37% | 1012.9 hPa | 1.78 mm | - | - | - |
| 1777920363 | 25° C | 38% | 1013.2 hPa | 1.78 mm | - | - | - |
| 1777920062 | 23.89° C | 38% | 1013.2 hPa | 1.78 mm | - | - | - |
| 1777919762 | 23.89° C | 36% | 1013.3 hPa | 1.78 mm | - | - | - |
| 1777919462 | 23.33° C | 43% | 1013.4 hPa | 1.78 mm | - | - | - |
| 1777919161 | 22.78° C | 37% | 1013.4 hPa | 1.78 mm | - | - | - |
| 1777918861 | 23.33° C | 38% | 1013.5 hPa | 1.78 mm | - | - | - |
| 1777918561 | 22.78° C | 40% | 1013.7 hPa | 1.78 mm | - | - | - |
| 1777918260 | 23.89° C | 41% | 1013.6 hPa | 1.78 mm | - | - | - |
| 1777917960 | 22.78° C | 42% | 1013.8 hPa | 1.78 mm | - | - | - |
| 1777917659 | 22.22° C | 39% | 1013.7 hPa | 1.78 mm | - | - | - |
| 1777917359 | 22.22° C | 43% | 1013.8 hPa | 1.78 mm | - | - | - |
| 1777917058 | 22.78° C | 43% | 1013.9 hPa | 1.78 mm | - | - | - |
| 1777916758 | 22.78° C | 38% | 1014 hPa | 1.78 mm | - | - | - |
| 1777916458 | 23.33° C | 46% | 1013.8 hPa | 1.78 mm | - | - | - |
| 1777915557 | 22.22° C | 43% | 1014.2 hPa | 1.78 mm | - | - | - |
| 1777914956 | 21.67° C | 45% | 1014.2 hPa | 1.78 mm | - | - | - |
| 1777914656 | 21.67° C | 45% | 1014.3 hPa | 1.78 mm | - | - | - |
| 1777914356 | 21.67° C | 42% | 1014.4 hPa | 1.78 mm | - | - | - |
| 1777914055 | 21.67° C | 42% | 1014.3 hPa | 1.78 mm | - | - | - |
| 1777913755 | 21.67° C | 44% | 1014.3 hPa | 1.78 mm | - | - | - |
| 1777913455 | 21.67° C | 46% | 1014.5 hPa | 1.78 mm | - | - | - |
| 1777913155 | 21.11° C | 48% | 1014.5 hPa | 1.78 mm | - | - | - |
| 1777912854 | 20.56° C | 48% | 1014.6 hPa | 1.78 mm | - | - | - |
* Rain since midnight (hover to see other rain measurements)
** Current wind speed in m/s (hover to see current wind gust speed)